TIME,DELAY(SENSOR),PRES,OXYGEN,RAWTEMP,T(OPTODE),TCPHASE,FLUOR,BETA(BETA700),BETA(BETA412),BETA(BETA440),CDOM,C(CSC),ED(ED412.40),ED(ED444.00),ED(ED489.70),ED(ED554.30),LU(LU411.80),LU(LU443.40),LU(LU489.60),LU(LU554.10),COMP,TILTX,TILTY,CHECK
1360554691,5807,895.0300292968750000,45.9451789855957000,661.5607299804688000,4.5765781402587890,54.1413688659668000,52,100,85,80,80,14961,2147754642,2147423451,2148011712,2147871168,2147637165,2147059986,2148257142,2147196864,3070,4,13,15387
1360558287,5810,974.8200073242188000,51.7500915527343750,666.9937744140625000,4.3974509239196780,53.3891487121582000,53,97,89,79,80,14963,2147753865,2147421741,2148011254,2147874907,2147640548,2147057974,2148260370,2147200758,208,4,13,10711
1360561887,5809,987.1400146484375000,51.7463912963867200,668.6442871093750000,4.3429718017578125,53.4158287048339840,52,98,88,77,80,14962,2147753965,2147423104,2148008749,2147874624,2147640091,2147059648,2148256210,2147199122,3509,4,14,14464
1360565487,5810,982.3599853515625000,51.9787292480468750,669.2033081054688000,4.3245120048522950,53.3896217346191400,52,99,84,79,80,14962,2147755483,2147421787,2148008786,2147873728,2147641545,2147053668,2148255469,2147196891,323,4,13,44134
1360569087,5810,990.9899902343750000,52.2293090820312500,670.0321044921875000,4.2971358299255370,53.3674011230468750,53,98,88,79,80,14961,2147753115,2147424411,2148012288,2147877467,2147641197,2147059419,2148257188,2147197348,2768,4,13,34292
1360572687,5812,990.4000244140625000,52.0546798706054700,670.1317138671875000,4.2938461303710940,53.3872795104980500,53,98,90,79,80,14964,2147755337,2147421028,2148010477,2147875757,2147642029,2147062308,2148260068,2147194550,29,4,13,2087
1360576287,5809,990.4699707031250000,51.8717803955078100,671.9398193359375000,4.2340970039367680,53.4389381408691400,52,98,88,80,80,14961,2147755675,2147421504,2148013540,2147872228,2147643666,2147061147,2148263506,2147196653,358,4,13,49350
1360579887,5808,989.5100097656250000,51.6970100402832000,671.5972900390625000,4.2454190254211430,53.4560508728027340,53,98,89,78,82,14961,2147755876,2147421485,2148010660,2147875492,2147640905,2147059346,2148264886,2147200457,220,4,13,49386
1360583487,5810,983.1599731445312000,50.5391197204589840,675.5214843750000000,4.1156249046325680,53.6664390563964840,52,99,88,78,80,14959,2147757778,2147423085,2148012955,2147878052,2147643949,2147058240,2148254582,2147198445,511,4,13,42940
1360587087,5809,991.5700073242188000,50.5932006835937500,676.3303222656250000,4.0888581275939940,53.6681289672851560,53,101,90,78,79,14958,2147758747,2147421513,2148008502,2147874944,2147641526,2147055734,2148262592,2147195008,149,4,13,10683
1360590687,5806,997.8400268554688000,50.4103698730468750,674.9318237304688000,4.1351451873779300,53.6768608093261700,53,99,88,79,81,14957,2147755245,2147422372,2148013787,2147877284,2147642898,2147061440,2148258889,2147193837,106,4,13,8320
1360594287,5810,1001.7000122070312000,50.6633682250976560,672.8604125976562000,4.2036628723144530,53.6134300231933600,52,100,87,79,80,14944,2147758573,2147423341,2148009590,2147873069,2147641417,2147059419,2148262509,2147195328,598,4,13,42604
1360597887,5805,1001.7000122070312000,50.6951293945312500,673.3801879882812000,4.1864700317382810,53.6168289184570300,53,98,83,78,82,14941,2147754688,2147421595,2148014253,2147873563,2147640969,2147063058,2148260406,2147197156,171,4,13,56442
1360601487,5808,1006.9699707031250000,51.9537200927734400,671.4653930664062000,4.2497792243957520,53.4226684570312500,52,98,86,78,80,14942,2147754706,2147423360,2148010596,2147873965,2147643803,2147053531,2148260516,2147197193,2619,4,13,50587
1360605087,5809,1004.8699951171875000,52.2139587402343750,669.3590087890625000,4.3193697929382320,53.3560791015625000,52,98,85,79,80,14940,2147751707,2147422518,2148009197,2147875456,2147640777,2147058313,2148257865,2147202550,178,4,13,55617
1360608687,5810,1011.2100219726562000,51.3456306457519500,668.8469848632812000,4.3362770080566410,53.4675407409668000,53,96,86,79,79,14938,2147753289,2147421449,2148012004,2147875538,2147640027,2147056256,2148259794,2147193984,3595,4,14,20668
1360612287,5807,1003.1900024414062000,52.0114288330078100,669.6320800781250000,4.3103489875793460,53.3906898498535160,53,97,85,77,80,14939,2147754505,2147422427,2148013174,2147873563,2147639314,2147059538,2148252041,2147194432,103,4,13,13482
1360615887,5809,1006.0000000000000000,51.1741294860839840,671.2354736328125000,4.2573761940002440,53.5234489440918000,53,98,91,79,80,14934,2147758445,2147423168,2148013001,2147876214,2147639771,2147056530,2148258176,2147191817,3029,4,13,52221
1360619487,5810,1004.9099731445312000,50.2384796142578100,672.4605102539062000,4.2168831825256350,53.6686286926269500,52,97,83,77,81,14937,2147757558,2147424384,2148012123,2147876032,2147642432,2147053622,2148254381,2147199085,173,4,14,36698
1360623087,5809,997.8400268554688000,49.9851799011230500,673.9462280273438000,4.1677489280700680,53.7230682373046900,52,98,89,80,79,14934,2147759341,2147421650,2148010340,2147878272,2147641106,2147060525,2148262400,2147195675,175,4,13,11040
1360626687,5807,990.6199951171875000,49.6767501831054700,675.1909179687500000,4.1265678405761720,53.7803382873535160,52,100,88,78,80,14936,2147757769,2147421458,2148011181,2147877330,2147643648,2147059026,2148263442,2147194304,237,4,13,35948
1360630287,5808,991.3800048828125000,49.9319000244140600,676.3989868164062000,4.0865797996521000,53.7618217468261700,52,98,88,79,80,14937,2147759204,2147424429,2148009910,2147876187,2147642441,2147057298,2148261257,2147197696,321,4,13,37879
1360633887,5807,997.9699707031250000,50.3891105651855500,676.6102905273438000,4.0795860290527340,53.6979103088378900,52,139,86,79,82,14936,2147756672,2147424713,2148012260,2147874870,2147640118,2147056438,2148259812,2147196160,3269,4,13,24441
1360637487,5809,997.2800292968750000,49.8813400268554700,676.5379028320312000,4.0819840431213380,53.7684898376464840,52,97,88,78,80,14935,2147757851,2147423753,2148011318,2147872228,2147642523,2147054674,2148262326,2147192612,255,4,13,61406
1360641087,5811,1005.4500122070312000,49.7067489624023440,675.5078125000000000,4.1160812377929690,53.7818984985351560,52,101,85,78,80,14931,2147756562,2147425088,2148010203,2147873929,2147641417,2147053824,2148261760,2147199661,3510,4,13,16859
1360644687,5805,1010.5800170898438000,48.6146583557128900,673.7141723632812000,4.1754250526428220,53.9069786071777340,52,101,88,80,80,14879,2147761152,2147425152,2148010614,2147873965,2147642102,2147060882,2148267008,2147193984,3447,4,13,21554
1360648287,5810,1010.4699707031250000,49.1761512756347660,672.2130737304688000,4.2250609397888180,53.8109397888183600,52,100,89,79,81,14874,2147755721,2147419181,2148009865,2147874806,2147640493,2147057746,2148260041,2147195346,291,4,13,7969
1360651887,5809,1010.9799804687500000,49.9767417907714840,671.0845947265625000,4.2623629570007320,53.6844902038574200,52,97,89,79,79,14878,2147755949,2147421915,2148012864,2147874368,2147643419,2147054299,2148257828,2147193545,410,4,14,26805
1360655487,5809,1020.9199829101562000,50.6848602294921900,669.4724121093750000,4.3156242370605470,53.5668601989746100,53,98,87,78,81,14876,2147754925,2147423881,2148012251,2147875757,2147642386,2147057042,2148262098,2147198784,560,4,14,2097
1360659087,5809,1017.3099975585938000,49.1996002197265600,669.4558715820312000,4.3161721229553220,53.7741813659668000,52,102,86,79,81,14877,2147754715,2147425069,2148006829,2147877878,2147641828,2147058267,2148263981,2147198774,103,4,13,47215
1360662687,5812,1015.5800170898438000,50.2963905334472660,670.9600219726562000,4.2664790153503420,53.6393089294433600,51,98,89,79,81,14877,2147756544,2147426422,2148011300,2147872722,2147644836,2147057920,2148265170,2147195501,3434,4,13,36320
1360666287,5810,1014.4299926757812000,50.0964012145996100,669.7039184570312000,4.3079781532287600,53.6550102233886700,52,97,87,80,81,14875,2147754578,2147422957,2148010944,2147876187,2147640109,2147059876,2148258953,2147195337,585,4,14,63958
1360669887,5808,996.9400024414062000,50.1983413696289060,671.0900268554688000,4.2621841430664060,53.6570014953613300,53,99,83,80,81,14875,2147759442,2147424804,2148009965,2147875785,2147642880,2147055716,2148258614,2147195547,1694,4,13,45359
1360673487,5809,992.7899780273438000,48.5633811950683600,674.5006713867188000,4.1494059562683105,53.9267501831054700,52,99,87,80,79,14872,2147757988,2147424822,2148010459,2147872987,2147643712,2147057106,2148258404,2147197970,3424,4,13,59702
1360677087,5812,1009.0300292968750000,47.8793601989746100,675.6705932617188000,4.1106929779052730,54.0362396240234400,52,100,89,78,80,14875,2147759780,2147423497,2148008420,2147873782,2147638875,2147056978,2148261842,2147197101,3307,4,13,39034
1360680687,5808,1001.5700073242188000,47.9528884887695300,675.9794921875000000,4.1004700660705570,54.0316390991210940,52,99,88,79,81,14873,2147758162,2147424502,2148008009,2147874742,2147644434,2147058861,2148259584,2147194569,3588,4,13,52274
1360684287,5807,998.0300292968750000,48.5778198242187500,676.9061279296875000,4.0697898864746090,53.9537582397460940,52,98,89,80,80,14871,2147759844,2147424594,2148011657,2147875190,2147642980,2147058688,2148264621,2147194889,122,4,13,5198
1360687887,5809,1006.1500244140625000,49.8844909667968750,676.3887939453125000,4.0869197845458980,53.7653388977050800,52,98,89,78,81,14871,2147756882,2147423158,2148011401,2147874870,2147642450,2147063698,2148260644,2147195565,204,4,13,9347
1360691487,5806,1015.5200195312500000,48.9018707275390600,673.8588867187500000,4.1706390380859375,53.8684883117675800,52,100,87,79,80,14871,2147756187,2147424512,2148011456,2147876269,2147641371,2147055250,2148260452,2147200009,3533,4,13,31892
1360695087,5806,1013.4199829101562000,49.3725509643554700,671.4652709960938000,4.2497811317443850,53.7776908874511700,53,99,86,77,80,14871,2147753883,2147422994,2148013458,2147876909,2147637668,2147057472,2148262299,2147201161,254,4,13,48076
1360698687,5809,1003.7399902343750000,48.7387084960937500,673.8543090820312000,4.1707921028137210,53.8943214416503900,53,101,88,78,82,14869,2147756288,2147422372,2148010971,2147875236,2147641600,2147058541,2148260224,2147197933,115,4,14,9667
1360699256,5809,1006.5900268554688000,48.4331512451171900,674.0964965820312000,4.1627788543701170,53.9351005554199200,52,98,85,79,81,14947,2147756745,2147423424,2148009984,2147876196,2147642806,2147058532,2148261348,2147197659,454,4,13,28614
